Welcome to the New NWS' Forecast!
Most changes are behind the scenes, but click here for differences you might notice.
Latest weather observations around

Merkel Field Sylacauga Municipal Airport (KSCD)

Using English Units (Switch to International System of Units)
Date/ Time (CDT) Wind (mph) Vis. (mi) Weather Sky Cond. Temp (°F) Rel. Humidity Wind Chill (°F) Heat Index (°F) Pressure Precip. (in)
Air Dwpt 6 hour Altimeter (inHg) Sea level (inHg) 1 hr 3 hr 6 hr
Max Min
Jul 18 22:35 ESE 3 10 Partly Cloudy SCT120 77 77     100%   79 29.95        
Jul 18 22:15 Calm 10 Partly Cloudy SCT120 77 77     100%   79 29.95        
Jul 18 21:55 Calm 10 Partly Cloudy SCT110 77 77     100%   79 29.96        
Jul 18 21:35 Calm 10 Clear CLR 77 77     100%   79 29.95        
Jul 18 21:15 Calm 10 Partly Cloudy SCT120 77 77     100%   79 29.95        
Jul 18 20:55 Calm 10 Partly Cloudy SCT095 SCT120 78 78     100%   80 29.95        
Jul 18 20:35 Calm 10 Clear CLR 78 78     99%   81 29.94        
Jul 18 20:15 Calm 10 Partly Cloudy SCT110 80 75     87%   84 29.94        
Jul 18 19:55 WSW 3 10 Partly Cloudy SCT070 SCT110 80 75     85%   85 29.94        
Jul 18 19:35 Calm 10 Clear CLR 81 75     82%   86 29.93        
Jul 18 19:15 WSW 3 10 Partly Cloudy SCT100 82 75     80%   88 29.92        
Jul 18 18:55 WSW 3 10 Partly Cloudy SCT100 82 74     77%   89 29.93        
Jul 18 18:35 WSW 6 10 Clear CLR 83 74     75%   90 29.92        
Jul 18 18:15 SW 6 10 Clear CLR 83 74     74%   90 29.92        
Jul 18 17:55 SW 5 10 Clear CLR 85 74     72%   92 29.92        
Jul 18 17:35 WSW 6 10 Clear CLR 85 75     71%   93 29.92        
Jul 18 17:15 W 5 10 Clear CLR 84 74     73%   92 29.92        
Jul 18 16:55 SW 6 10 Clear CLR 83 75     76%   90 29.92        
Jul 18 16:35 SSW 5 10 Partly Cloudy SCT048 SCT055 SCT070 83 74     75%   90 29.92        
Jul 18 16:15 SSW 6 10 Partly Cloudy SCT048 SCT055 84 74     72%   91 29.92        
Jul 18 15:55 Calm 10 Clear CLR 89 73     60%   97 29.92        
Jul 18 15:35 Calm 10 Partly Cloudy SCT045 90 74     59%   99 29.92        
Jul 18 15:15 NNE 3 10 Partly Cloudy SCT047 92 74     56%   101 29.93        
Jul 18 14:55 NNW 7 10 Partly Cloudy SCT045 91 74     59%   101 29.94        
Jul 18 14:35 Calm 10 Partly Cloudy SCT048 91 74     58%   102 29.95        
Jul 18 14:15 N 6 10 Partly Cloudy SCT045 SCT055 92 75     59%   103 29.95        
Jul 18 13:55 N 5 10 Partly Cloudy SCT044 SCT065 91 76     60%   103 29.96        
Jul 18 13:35 NNW 6 10 Partly Cloudy SCT036 SCT060 91 76     61%   103 29.97        
Jul 18 13:15 ESE 3 10 Partly Cloudy SCT036 SCT060 91 77     63%   105 29.97        
Jul 18 12:55 Calm 10 Partly Cloudy SCT038 SCT100 90 76     63%   101 29.98        
Jul 18 12:35 Calm 10 Mostly Cloudy SCT032 SCT060 BKN100 90 76     64%   102 29.98        
Jul 18 12:15 N 3 10 Cloudy BKN028 BKN039 OVC100 89 78     69%   103 29.99        
Jul 18 11:55 Calm 10 Cloudy BKN026 BKN032 OVC100 88 77     69%   100 30        
Jul 18 11:35 Calm 10 Cloudy SCT026 BKN080 OVC120 88 77     71%   100 30        
Jul 18 11:15 N 3 10 Mostly Cloudy SCT022 SCT080 BKN100 86 77     73%   98 30.01        
Jul 18 10:55 NNW 3 10 Mostly Cloudy SCT020 BKN095 BKN110 85 76     76%   95 30.01        
Jul 18 10:35 Calm 10 Partly Cloudy SCT018 SCT110 86 77     76%   97 30.02        
Jul 18 10:15 Calm 10 Partly Cloudy SCT014 SCT110 85 78     82%   96 30.02        
Jul 18 09:55 Calm 10 Mostly Cloudy BKN010 83 80     91%   96 30.01        
Jul 18 09:35 Calm 10 Partly Cloudy SCT008 SCT120 78 78     100%   81 30.01        
Jul 18 09:15 Calm 10 Mostly Cloudy BKN006 BKN120 76 76     100%   79 30.01        
Jul 18 08:55 Calm 7 Cloudy OVC004 76 76     100%   78 30.01        
Jul 18 08:35 Calm 5 Fog/Mist OVC004 76 76     100%   78 30.01        
Jul 18 08:15 Calm 2.5 Fog/Mist OVC002 75 75     100%   77 30.02        
Jul 18 07:55 Calm 3 Fog/Mist OVC002 75 75     100%   77 30.02        
Jul 18 07:35 Calm 0.75 Clear   75 75     100%   77 30.02        
Jul 18 07:15 Calm 1.5 Clear   75 75     100%   77 30.02        
Jul 18 06:55 Calm 1 Clear   75 75     100%   77 30.01        
Jul 18 06:35 Calm 0.25 Fog OVC002 74 74     100%   76 30.01        
Jul 18 06:15 Calm 0.25 Fog OVC002 74 74     100%   76 30.01        
Jul 18 05:55 Calm 0.5 Fog OVC002 74 74     100%   76 30        
Jul 18 05:35 Calm 0.25 Fog OVC002 74 74     100%   76 29.99        
Jul 18 05:15 Calm 1.25 Fog/Mist OVC002 75 75     100%   77 29.99        
Jul 18 04:55 Calm 4 Fog/Mist OVC002 74 74     100%   76 29.98        
Jul 18 04:35 Calm 4 Fog/Mist SCT004 OVC110 74 74     100%   75 29.98        
Jul 18 04:15 Calm 4 Fog/Mist BKN110 74 74     100%   76 29.98        
Jul 18 03:55 Calm 4 Fog/Mist BKN120 74 74     100%   76 29.98        
Jul 18 03:35 Calm 4 Fog/Mist SCT031 SCT120 74 74     100%   76 29.98        
Jul 18 03:15 Calm 3 Fog/Mist SCT031 BKN120 74 74     100%   76 29.98        
Jul 18 02:55 Calm 3 Fog/Mist SCT025 SCT065 BKN110 74 74     100%   76 29.97        
Jul 18 02:35 Calm 4 Fog/Mist SCT023 SCT065 OVC110 75 75     100%   77 29.97        
Jul 18 02:15 Calm 4 Fog/Mist BKN110 75 75     100%   77 29.98        
Jul 18 01:55 Calm 5 Fog/Mist BKN110 75 75     100%   77 29.98        
Jul 18 01:35 Calm 5 Fog/Mist BKN120 76 76     100%   78 29.98        
Jul 18 01:15 Calm 5 Fog/Mist BKN120 76 76     100%   78 29.98        
Jul 18 00:55 Calm 4 Fog/Mist BKN110 76 76     100%   78 29.97        
Jul 18 00:35 Calm 7 Mostly Cloudy BKN110 76 76     100%   79 29.98        
Jul 18 00:15 Calm 7 Mostly Cloudy BKN110 77 77     100%   79 29.99        
Jul 17 23:55 Calm 7 Mostly Cloudy BKN110 77 77     100%   79 30        
Jul 17 23:35 Calm 7 Mostly Cloudy BKN110 77 77     100%   79 30        
Jul 17 23:15 Calm 5 Fog/Mist OVC110 76 76     100%   78 30.01        
Jul 17 22:55 Calm 5 Fog/Mist OVC110 76 76     100%   78 30        
Jul 17 22:35 Calm 5 Fog/Mist OVC110 77 77     100%   79 30.01        
Jul 17 22:15 Calm 5 Fog/Mist OVC110 77 77     100%   79 30.02        
Jul 17 21:55 Calm 5 Fog/Mist BKN110 77 77     100%   79 30.01        
Jul 17 21:35 Calm 5 Fog/Mist BKN120 77 77     100%   79 30.01        
Jul 17 21:15 Calm 5 Fog/Mist BKN120 78 78     100%   80 30        
Jul 17 20:55 Calm 7 Partly Cloudy SCT110 78 78     100%   81 30        
Jul 17 20:35 Calm 7 Partly Cloudy SCT120 79 79     100%   84 30        
Jul 17 20:15 Calm 7 Mostly Cloudy BKN110 79 79     100%   85 30        
Jul 17 19:55 W 3 7 Mostly Cloudy BKN110 81 78     93%   88 30.01        
Jul 17 19:35 Calm 7 Mostly Cloudy BKN110 81 78     89%   90 30        
Jul 17 19:15 Calm 7 Cloudy OVC100 82 78     88%   90 30        
Jul 17 18:55 W 3 7 Mostly Cloudy BKN110 83 77     84%   91 29.99        
Jul 17 18:35 NW 3 7 Cloudy OVC110 83 76     79%   92 29.99        
Jul 17 18:15 NW 5 10 Cloudy SCT028 SCT060 OVC110 85 77     76%   95 29.99        
Jul 17 17:55 WNW 6 10 Cloudy SCT028 SCT065 OVC110 86 77     73%   97 29.98        
Jul 17 17:35 W 5 10 Cloudy SCT026 BKN060 OVC120 86 77     73%   98 29.97        
Jul 17 17:15 WSW 7 10 Mostly Cloudy BKN110 87 77     71%   99 29.98        
Jul 17 16:55 W 9 10 Mostly Cloudy SCT075 BKN110 87 76     71%   98 29.98        
Jul 17 16:35 WSW 8 10 Mostly Cloudy BKN110 87 78     74%   99 29.98        
Jul 17 16:15 W 6 10 Mostly Cloudy BKN110 86 77     74%   98 29.98        
Jul 17 15:55 WNW 5 10 Mostly Cloudy SCT023 SCT060 BKN110 86 77     73%   97 29.98        
Jul 17 15:35 NW 7 10 Cloudy BKN023 OVC110 86 77     75%   97 30        
Jul 17 15:15 NW 7 10 Cloudy BKN023 OVC100 87 77     74%   98 30        
Jul 17 14:55 W 9 10 Cloudy SCT021 BKN100 OVC120 87 78     76%   99 30.01        
Jul 17 14:35 W 7 10 Mostly Cloudy SCT021 SCT070 BKN120 86 79     80%   100 30.01        
Jul 17 14:15 W 10 10 Mostly Cloudy SCT021 SCT070 BKN095 86 79     79%   101 30.01        
Jul 17 13:55 WNW 8 10 Mostly Cloudy SCT021 SCT070 BKN095 85 79     82%   98 30.02        
Jul 17 13:35 WSW 3 10 Partly Cloudy SCT019 SCT075 SCT095 84 79     84%   97 30.03        
Jul 17 13:15 NW 7 10 Partly Cloudy SCT019 SCT075 SCT110 84 79     83%   96 30.04        
Jul 17 12:55 WNW 7 10 Partly Cloudy SCT017 SCT075 84 79     85%   96 30.04        
Jul 17 12:35 W 7 10 Mostly Cloudy BKN017 82 79     88%   92 30.05        
Jul 17 12:15 Calm 10 Cloudy OVC014 81 78     92%   89 30.06        
Jul 17 11:55 Calm 10 Cloudy OVC014 81 78     92%   88 30.06        
Jul 17 11:35 Calm 7 Cloudy OVC014 80 79     94%   88 30.06        
Jul 17 11:15 Calm 7 Cloudy OVC012 79 78     97%   83 30.07        
Jul 17 10:55 Calm 7 Cloudy OVC012 80 78     94%   86 30.06        
Jul 17 10:35 Calm 7 Cloudy OVC010 78 78     99%   81 30.06        
Jul 17 10:15 Calm 7 Cloudy OVC010 78 78     100%   80 30.06        
Jul 17 09:55 Calm 7 Cloudy OVC010 77 77     100%   79 30.06        
Jul 17 09:35 Calm 5 Fog/Mist OVC006 76 76     100%   78 30.07        
Jul 17 09:15 Calm 7 Cloudy OVC004 75 75     100%   77 30.07        
Jul 17 08:55 Calm 4 Fog/Mist OVC004 74 74     100%   76 30.07        
Jul 17 08:35 Calm 3 Fog/Mist OVC004 74 74     100%   76 30.08        
Jul 17 08:15 Calm 3 Fog/Mist OVC004 74 74     100%   76 30.07        
Jul 17 07:55 Calm 3 Fog/Mist OVC004 74 74     100%   75 30.07        
Jul 17 07:35 Calm 3 Fog/Mist OVC004 74 74     100%   76 30.07        
Jul 17 07:15 Calm 4 Fog/Mist OVC004 73 73     100%   75 30.06        
Jul 17 06:55 Calm 4 Fog/Mist OVC004 73 73     100%   75 30.05        
Jul 17 06:35 Calm 5 Fog/Mist OVC004 73 73     100%   75 30.05        
Jul 17 06:15 Calm 7 Cloudy OVC004 73 73     100%   75 30.05        
Jul 17 05:55 Calm 7 Cloudy OVC006 73 73     100%   75 30.05        
Jul 17 05:35 Calm 7 Cloudy OVC006 73 73     100%   75 30.05        
Jul 17 05:15 Calm 7 Cloudy OVC006 73 73     100%   75 30.04        
Jul 17 04:55 Calm 7 Cloudy OVC006 73 73     100%   75 30.04        
Jul 17 04:35 Calm 7 Clear   73 73     100%   75 30.03        
Jul 17 04:15 Calm 7 Clear   73 73     100%   75 30.02        
Jul 17 03:55 Calm 7 Clear   73 73     100%   75 30.02        
Jul 17 03:35 Calm 7 Cloudy OVC100 74 74     100%   75 30.02        
Jul 17 03:15 Calm 7 Cloudy OVC100 74 74     100%   76 30.02        
Jul 17 02:55 Calm 7 Mostly Cloudy BKN110 73 73     100%   75 30.02        
Jul 17 02:35 Calm 7 Mostly Cloudy BKN110 74 74     100%   76 30.02        
Jul 17 02:15 Calm 7 Mostly Cloudy BKN110 74 74     100%   76 30.02        
Jul 17 01:55 Calm 7 Mostly Cloudy BKN110 74 74     100%   76 30.02        
Jul 17 01:35 Calm 7 Mostly Cloudy BKN120 75 75     100%   77 30.02        
Jul 17 01:15 Calm 10 Partly Cloudy SCT120 75 75     100%   77 30.02        
Jul 17 00:55 Calm 10 Partly Cloudy SCT120 75 75     100%   77 30.02        
Jul 17 00:35 Calm 10 Partly Cloudy SCT100 SCT120 76 76     100%   78 30.02        
Jul 17 00:15 Calm 10 Mostly Cloudy SCT042 SCT065 BKN110 76 76     100%   78 30.03        
Jul 16 23:55 W 8 10 Cloudy SCT022 BKN041 OVC110 76 76     100%   79 30.04        
Jul 16 23:35 WSW 8 10 Cloudy SCT014 BKN024 OVC031 77 77     100%   79 30.04        
Jul 16 23:15 Calm 7 Cloudy SCT025 BKN060 OVC110 77 77     100%   79 30.04        
Jul 16 22:55 Calm 7 Mostly Cloudy BKN110 77 77     100%   79 30.04        
Jul 16 22:35 Calm 7 Mostly Cloudy BKN110 77 77     100%   79 30.04        
Jul 16 22:15 Calm 10 Mostly Cloudy BKN110 77 77     100%   79 30.04        
Jul 16 21:55 Calm 10 Cloudy OVC110 78 78     100%   80 30.04        
Jul 16 21:35 Calm 10 Cloudy OVC100 78 78     100%   81 30.04        
Jul 16 21:15 Calm 10 Cloudy OVC090 78 78     100%   81 30.04        
Jul 16 20:55 Calm 10 Cloudy BKN090 OVC120 78 78     100%   80 30.03        
Jul 16 20:35 Calm 10 Cloudy BKN090 OVC120 78 78     100%   81 30.02        
Jul 16 20:15 Calm 10 Cloudy BKN090 OVC110 78 78     100%   82 30.01        
Jul 16 19:55 Calm 10 Mostly Cloudy BKN110 80 77     92%   86 30        
Jul 16 19:35 Calm 10 Cloudy OVC110 81 76     86%   87 30        
Jul 16 19:15 Calm 10 Cloudy OVC110 82 76     84%   89 30        
Jul 16 18:55 SW 3 10 Mostly Cloudy BKN110 83 76     81%   91 30       0
Jul 16 18:35 WSW 5 10 Mostly Cloudy BKN110 83 77     81%   93 30.01        
Jul 16 18:15 SW 5 10 Mostly Cloudy BKN110 84 77     79%   94 30.01        
Jul 16 17:55 Calm 10 Partly Cloudy SCT110 84 77     79%   94 30.01        
Jul 16 17:35 W 3 10 Partly Cloudy SCT011 SCT120 83 78     85%   93 30.01        
Jul 16 17:15 Calm 10 Clear CLR 81 78     91%   89 30.01        
Jul 16 16:55 Calm 10 Clear CLR 81 78     92%   88 30.01   0    
Jul 16 16:35 Calm 10 Clear CLR 81 80     97%   89 30.01   0    
Jul 16 16:15 Calm 10 Clear CLR 80 79     99%   86 30        
Jul 16 15:55 Calm 10 Clear CLR 79 79     100%   83 30.01     0  
Jul 16 15:35 Calm 7 Partly Cloudy SCT095 SCT120 78 78     100%   81 29.99        
Jul 16 15:15 Calm 10 Mostly Cloudy SCT065 SCT075 BKN090 77 77     100%   79 30        
Jul 16 14:55 Calm 10 Light Drizzle BKN110 76 76     100%   78 30.01   0    
Jul 16 14:35 Calm 5 Light Rain SCT110 76 76     100%   78 30.02   0    
Jul 16 14:15 Calm 5 Rain SCT120 75 75     100%   77 30.04   0    
Jul 16 13:55 Calm 3 Rain SCT021 SCT040 BKN110 74 74     100%   76 30.06   0    
Jul 16 13:35 NW 7 2.5 Cloudy BKN021 BKN039 OVC100 74 74     100%   76 30.09   0    
Jul 16 13:15   10 Cloudy SCT018 BKN031 OVC044 84 76     77%   92 30.09        
Jul 16 12:55 W 6 10 Mostly Cloudy SCT029 BKN044 BKN080 85 78     79%   97 30.08        
Jul 16 12:35 WNW 6 10 Mostly Cloudy BKN025 BKN032 BKN038 84 78     81%   94 30.08        
Jul 16 12:15 W 6 10 Cloudy SCT022 BKN029 OVC100 84 78     82%   95 30.09        
Jul 16 11:55 Calm 10 Cloudy SCT018 BKN028 OVC120 84 78     82%   94 30.09        
Jul 16 11:35 W 7 10 Mostly Cloudy BKN018 BKN060 BKN070 84 78     84%   94 30.09        
Jul 16 10:55 WSW 3 10 Partly Cloudy SCT015 SCT100 81 78     90%   89 30.09        
Jul 16 10:35 SW 3 10 Cloudy OVC013 80 77     92%   86 30.09        
Jul 16 10:15 W 3 10 Mostly Cloudy BKN013 BKN090 BKN110 80 78     94%   85 30.09        
Jul 16 09:55 Calm 10 Mostly Cloudy BKN011 BKN090 BKN110 79 78     96%   83 30.09        
Jul 16 09:35 Calm 7 Mostly Cloudy BKN009 BKN048 BKN070 78 78     98%   81 30.09        
Jul 16 09:15 Calm 7 Cloudy OVC007 76 76     100%   78 30.1        
Jul 16 08:55 Calm 7 Cloudy OVC005 75 75     100%   77 30.09        
Jul 16 08:35 Calm 5 Fog/Mist OVC005 74 74     100%   76 30.09        
Jul 16 08:15 Calm 5 Fog/Mist OVC003 73 73     100%   75 30.09        
Jul 16 07:55 Calm 4 Fog/Mist OVC003 73 73     100%   75 30.08        
Jul 16 07:35 Calm 4 Fog/Mist OVC003 73 73     100%   75 30.07        
Jul 16 07:15 Calm 4 Fog/Mist OVC003 73 73     100%   74 30.07        
Jul 16 06:55 Calm 4 Fog/Mist OVC003 72 72     100%   74 30.07        
Jul 16 06:35 Calm 2.5 Fog/Mist OVC003 72 72     100%   74 30.06        
Jul 16 06:15 Calm 1.5 Fog/Mist OVC003 72 72     100%   74 30.06        
Jul 16 05:55 Calm 7 Cloudy OVC003 72 72     100%   74 30.06        
Jul 16 05:35 Calm 5 Fog/Mist OVC003 72 72     100%   74 30.05        
Jul 16 05:15 Calm 7 Cloudy OVC003 72 72     100%   74 30.05        
Jul 16 04:55 Calm 1.5 Fog/Mist OVC003 72 72     100%   74 30.05        
Jul 16 04:35 Calm 0.5 Fog OVC003 72 72     100%   74 30.05        
Jul 16 04:15 Calm 0.75 Fog/Mist OVC003 72 72     100%   73 30.05        
Jul 16 03:55 Calm 10 Mostly Cloudy SCT100 BKN120 71 71     100%   73 30.05        
Jul 16 03:35 Calm 10 Cloudy OVC110 72 72     100%   73 30.05        
Jul 16 03:15 Calm 10 Cloudy OVC110 72 72     100%   73 30.05        
Jul 16 02:55 Calm 10 Cloudy OVC110 72 72     100%   74 30.04        
Jul 16 02:35 Calm 10 Mostly Cloudy BKN110 72 72     100%   74 30.04        
Jul 16 02:15 Calm 10 Cloudy OVC110 72 72     100%   74 30.04        
Jul 16 01:55 Calm 10 Mostly Cloudy BKN110 73 73     100%   75 30.03        
Jul 16 01:35 Calm 10 Mostly Cloudy BKN110 74 74     100%   75 30.02        
Jul 16 01:15 Calm 10 Mostly Cloudy BKN110 74 74     100%   76 30.03        
Jul 16 00:55 Calm 10 Mostly Cloudy BKN100 BKN120 74 74     100%   76 30.04        
Jul 16 00:35 Calm 10 Mostly Cloudy BKN100 BKN120 74 74     100%   76 30.04        
Jul 16 00:15 Calm 10 Cloudy OVC110 74 74     100%   76 30.03        
Jul 15 23:55 Calm 10 Mostly Cloudy BKN110 74 74     100%   76 30.04        
Jul 15 23:35 Calm 10 Cloudy OVC110 75 75     100%   77 30.03        
Jul 15 23:15 Calm 10 Mostly Cloudy BKN110 74 74     100%   76 30.03        
Jul 15 22:55 Calm 10 Mostly Cloudy BKN110 74 74     100%   76 30.04        
May 15 02:15 Calm 10 Clear CLR 70 67     91%     29.97        
May 14 12:35 NNW 3 10 Mostly Cloudy SCT060 BKN070 88 65     47%   90 30.04        
May 13 06:15 Calm 10 Clear CLR 59 59     100%     30.13        
May 12 16:15 W 3 10 Clear CLR 89 59     36%   88 30.1        
May 12 14:35 W 8 10 Clear CLR 89 60     37%   89 30.12        
May 12 12:15 N 6 10 Clear CLR 87 59     39%   86 30.16        
May 12 01:35 Calm 7 Clear CLR 61 61     100%     30.1        
May 11 23:15 Calm 10 Clear CLR 64 64     100%     30.11        
May 11 21:55 Calm 10 Clear CLR 67 67     98%     30.11        
May 11 21:15 Calm 10 Clear CLR 69 66     89%     30.1        
May 11 17:35 WSW 6 10 Clear CLR 87 60     41%   87 30.06        
May 11 15:35 SW 6 10 Clear CLR 89 60     38%   88 30.08        
Notice The following observation data may not be complete
May 11 12:35   10 Clear CLR          %              
Jun 12 04:15 Calm 10 Clear CLR 72 72     100%   74 30.14        
Jun 12 03:55 Calm 10 Clear CLR 73 73     100%   75 30.14        
Jun 11 21:55 Calm 10 Clear   79 71     79%   80 30.15        
Jun 11 20:55 SSE 5 10 Clear   80 73     79%   84 30.12        
Jun 11 17:15 S 6 10 Partly Cloudy SCT045 90 72     54%   98 30.09        
Jun 11 15:15 SE 8 10 Partly Cloudy SCT045 89 71     56%   96 30.12        
Jun 11 09:55 S 5 10 Mostly Cloudy BKN020 BKN085 83 74     74%   89 30.17        
Jun 11 09:15 SE 7 10 Partly Cloudy SCT016 SCT110 81 74     77%   87 30.17        
Notice The following observation data may not be complete
Jun 11 02:35   10 Clear CLR          %              
Jun 11 02:15 Calm 10 Clear   66 66     100%     30.09        
Jun 11 00:15 Calm 10 Clear CLR 68 68     100%     30.11        
Jun 10 18:35 SSE 3 10 Clear   83 65     54%   85 30.05        
Jun 10 16:35 SE 5 10 Clear CLR 88 62     42%   88 30.05        
Jun 10 13:35 SSE 8 10 Partly Cloudy SCT065 SCT075 87 64     47%   89 30.09        
Jun 10 12:55 SSE 3 10 Mostly Cloudy SCT060 BKN075 87 63     44%   88 30.1        
Jun 10 11:35 S 5 10 Partly Cloudy SCT065 87 61     42%   87 30.11        
Jun 10 09:15 Calm 10 Partly Cloudy SCT080 SCT100 80 69     68%   83 30.1        
Jun 10 05:15 Calm 10 Mostly Cloudy BKN080 BKN095 63 63     100%     30.03        
Jun 10 03:15 Calm 10 Partly Cloudy SCT060 SCT070 64 64     100%     30.01        
Jun 10 02:35 Calm 10 Partly Cloudy SCT060 64 64     100%     30.01        
Jun 09 20:35 Calm 10 Clear CLR 72 67     86%   73 29.96        
Jun 09 05:35 Calm 10 Partly Cloudy SCT060 60 60     100%     29.95        
Jun 08 18:35 Calm 10 Partly Cloudy SCT110 79 62     56%   80 29.86        
Jun 08 02:15 Calm 10 Clear CLR 61 61     100%     29.87        
Jun 08 01:55 Calm 10 Clear CLR 62 61     97%     29.87        
Jun 07 17:35 NNE 5 10 Clear CLR 82 61     49%   83 29.82        
Jun 07 11:35 NE 8 10 Clear   79 68     69%   82 29.82        
Jun 07 09:35 NE 7 10 Clear CLR 74 65     72%   75 29.82        
Jun 06 10:55 Calm 10 Light Drizzle SCT005 BKN049 OVC055 72 72     100%   74 29.82   0    
Notice The following observation data may not be complete
Jun 06 05:55   10 Cloudy OVC005          %              
Jun 06 04:55 Calm 10 Cloudy BKN005 BKN055 OVC070 72 72     100%   74 29.8        
Jun 06 03:35 Calm 10 Light Rain SCT037 SCT048 SCT070 72 72     100%   74 29.8        
Jun 06 01:55 Calm 10 Cloudy SCT035 BKN042 OVC065 72 72     100%   74 29.81        
Jun 05 15:55 ENE 5 7 Rain SCT005 BKN048 OVC100 74 74     100%   76 29.81   0 1